SCP
0 0 0 0 0 0 0 0 0 0 0 0 0 0 0 0 0 0 0 0 0 0 0 0 0 0 0 0 0 0 0 0 1 1 1 0 1 1 0 0 0 0 0 0
0 0 0 0 0 0 0 0 0 0 0 0 0 0 0 0 0 0 0 0 0 0 0 0 0 0 0 0 0 0 0 0 1 1 1 1 1 1 1 0 0 0 0 0
0 0 0 0 0 0 0 0 0 0 0 0 0 0 0 0 0 0 0 0 0 0 0 0 0 0 0 0 0 0 0 0 0 1 1 1 1 0 1 0 0 0 0 0
0 0 -0 0 0 0 0 0 0 0 0 0 0 0 0 0 0 0 0 0 0 0 0 0 0 0 0 0 0 0 0 0 0 0 1 1 1 1 1 1 1 0 0 0
0 -0 -0 0 0 0 0 0 0 0 0 0 0 0 0 0 0 0 0 0 0 0 0 0 0 0 0 0 0 0 0 0 0 0 0 0 1 1 1 1 1 1 0 0
0 0 0 0 -0 -0 0 0 0 0 0 0 0 0 0 0 0 0 0 0 0 0 0 0 0 0 0 0 0 0 0 0 0 0 0 0 0 0 0 0 1 1 0 0
0 0 0 0 0 0 0 0 0 0 0 0 0 0 0 0 0 0 0 0 0 0 0 0 0 0 0 0 0 0 0 0 0 0 0 0 0 0 0 0 0 0 0 0
0 0 0 0 0 0 0 0 0 0 0 0 0 0 0 0 0 0 0 0 0 0 0 0 0 0 0 0 0 0 0 0 0 0 0 0 0 0 0 0 0 0 0 0
0 0 0 0 0 0 0 0 0 0 0 0 0 0 0 0 0 0 0 0 0 0 0 0 0 0 0 0 0 0 0 0 0 0 0 0 0 0 0 0 0 0 0 0
0 0 0 0 0 0 0 0 0 0 0 0 0 0 0 0 0 0 0 0 0 0 0 0 0 0 0 0 0 0 0 0 0 0 0 0 0 0 0 0 0 0 0 0
0 0 0 0 0 0 0 0 0 0 0 0 0 0 0 0 0 0 0 0 -0 -0 -0 0 0 0 0 0 0 0 0 0 0 0 0 0 0 0 0 0 0 0 0 0
0 0 0 0 0 0 0 0 0 0 0 0 0 0 0 0 0 0 0 -0 -0 -0 -0 0 0 0 0 0 0 0 0 0 0 0 0 0 0 0 0 0 0 0 0 0
0 0 0 0 0 0 0 0 0 0 0 0 0 0 0 0 0 0 -0 -0 -0 -0 0 0 0 0 0 0 0 0 0 0 0 0 0 0 0 0 0 0 0 0 0 0
0 0 0 0 0 0 0 0 0 0 0 0 0 0 0 0 0 0 0 -0 -0 -0 -0 -0 -0 0 0 0 0 0 0 0 0 0 0 0 0 0 0 0 0 0 0 0
0 0 0 0 0 0 0 0 0 0 0 0 0 0 0 0 0 0 0 0 0 0 -0 -0 0 0 0 0 0 0 0 0 0 0 0 0 0 0 0 0 0 0 0 0
0 0 0 0 0 0 0 0 0 0 0 0 0 0 0 0 0 0 0 0 0 0 0 0 0 0 0 0 0 0 0 0 0 0 0 0 0 0 0 0 0 0 0 0
0 0 0 0 0 0 0 0 -0 0 0 0 0 0 0 0 0 0 0 0 0 0 0 0 0 0 0 0 0 0 0 -0 -0 0 0 0 0 0 0 0 -0 -0 -0 0
0 0 0 0 0 0 0 0 0 -0 0 0 0 0 0 0 0 0 0 0 0 0 0 0 0 0 0 0 0 0 0 0 0 0 0 0 0 -0 -0 -0 -0 -0 -0 -0
0 0 0 0 0 0 0 0 0 0 0 0 -0 -0 0 -0 0 0 0 0 -0 -0 0 0 0 0 0 0 0 0 0 0 0 0 0 0 -0 -0 -0 -0 -0 -0 -0 -0
0 0 0 0 0 0 0 0 0 0 0 0 0 0 0 0 0 -0 0 0 0 -0 0 0 -0 0 0 -0 0 0 -0 0 0 0 -0 0 -0 -0 -0 -0 -0 0 -0 -0
0 0 0 0 0 0 0 0 0 0 0 0 0 0 0 -0 -0 0 0 0 0 0 -0 -0 -0 0 -0 -0 0 -0 0 0 0 0 0 -0 0 0 0 0 0 0 -0 -0
0 0 0 0 0 0 0 0 0 0 0 0 0 -0 -0 0 0 0 0 0 0 0 -0 -0 -0 -0 -0 0 -0 0 -0 -0 -0 -0 -0 -0 -0 -0 -0 0 0 0 0 -0
0 0 0 0 0 0 0 0 0 0 0 0 0 -0 -0 0 0 -0 0 0 0 0 0 -0 -0 -0 0 -0 -0 0 0 0 0 0 0 -0 -0 -0 -0 0 0 0 0 0
0 0 0 0 0 0 0 0 0 0 0 0 0 -0 -0 0 -0 -0 -0 -0 0 0 0 -0 0 -0 0 0 0 0 0 0 0 -0 0 -0 -0 0 0 0 -0 0 0 0
0 0 0 0 -0 0 0 0 0 0 0 0 0 -0 -0 0 0 0 0 0 0 -0 -0 -0 -0 -0 -0 -0 -0 0 0 0 -0 -0 -0 -0 0 0 0 0 0 0 0 0
0 0 0 0 0 -0 -0 -0 -0 -0 0 -0 -0 0 0 0 -0 -0 -0 -0 -0 -0 -0 -0 -0 -0 -0 -0 -0 0 0 -0 0 0 0 0 0 0 0 0 0 0 0 0
Wind_Speed_500mb
34 19 29 35 20 8 16 14 8 7 4 5 8 9 18 31 32 32 44 47 52 55 51 49 50 51 51 51 58 56 64 64 61 62 64 69 70 72 69 62 57 54 51 52
7 24 17 18 17 9 24 18 10 2 3 5 4 14 23 21 20 33 39 46 44 45 49 52 55 58 57 52 50 56 55 60 72 71 68 68 62 66 70 71 63 60 57 56
10 13 14 21 34 24 7 20 8 8 4 5 6 9 6 2 8 9 13 9 11 15 25 30 35 43 50 56 56 52 56 55 57 70 74 74 70 66 67 62 60 66 65 64
14 12 29 11 14 10 13 2 10 11 5 4 5 5 4 4 19 20 28 34 34 36 34 27 18 5 14 28 48 60 62 55 51 47 68 80 80 79 75 70 62 65 67 71
4 30 33 25 11 8 4 9 5 6 7 2 3 4 7 1 10 8 15 29 36 36 38 40 36 30 16 6 9 27 50 59 53 47 44 52 70 77 76 75 70 69 72 72
10 7 7 5 35 23 20 12 12 8 4 1 2 3 5 5 6 4 4 20 31 38 35 33 33 27 24 20 15 6 11 27 46 51 48 51 55 56 56 60 66 71 76 75
5 8 7 12 20 7 7 7 4 4 2 5 2 4 9 4 4 9 4 18 30 34 36 34 29 26 22 18 13 9 5 4 17 30 42 47 50 56 56 55 55 58 62 67
6 8 4 4 5 12 5 6 7 8 7 4 2 9 3 6 12 19 5 14 26 33 36 33 29 24 22 20 18 16 14 10 10 13 17 24 34 44 49 50 51 55 58 58
9 8 5 10 5 3 4 4 5 11 4 2 5 8 6 5 3 2 7 15 25 31 33 31 26 22 20 24 25 26 26 29 28 26 26 25 26 28 30 33 39 44 47 52
3 12 6 3 7 20 3 13 4 4 5 5 4 6 8 10 9 2 7 18 22 28 34 34 31 27 18 23 25 26 27 30 37 41 39 35 32 31 31 31 34 39 45 52
9 7 2 3 2 11 3 3 8 7 3 6 2 5 10 17 13 4 10 21 21 31 37 37 36 27 24 25 23 20 25 23 24 28 34 35 34 34 36 40 44 47 51 55
2 9 7 5 2 3 3 7 7 7 7 3 2 7 2 10 9 5 21 26 19 28 35 37 34 26 20 21 21 24 23 19 16 12 13 18 24 30 36 42 47 51 52 53
7 5 8 2 1 4 5 7 7 9 5 8 6 6 2 5 10 31 19 29 22 24 32 32 26 22 19 19 21 21 22 24 23 26 24 22 22 28 36 36 35 37 33 30
13 6 8 9 5 7 5 7 7 9 5 8 9 10 7 7 12 29 40 14 18 24 28 25 22 19 17 15 19 20 24 26 23 21 22 27 31 34 34 19 15 16 20 25
7 7 3 2 4 6 7 8 15 10 9 10 4 10 13 13 15 23 31 14 18 20 21 16 17 15 14 14 17 25 25 24 26 23 21 24 25 20 14 15 13 16 22 27
6 3 4 6 2 7 6 9 15 16 5 13 3 26 26 39 28 16 3 12 11 15 15 12 9 10 13 18 21 21 22 28 31 25 22 18 14 10 7 7 8 9 15 23
6 8 4 4 5 3 7 19 22 9 9 17 14 18 12 10 7 2 5 4 6 11 10 8 5 8 12 15 17 20 24 29 30 25 18 17 16 17 12 4 7 11 19 28
8 8 4 1 5 4 7 2 14 24 8 22 13 18 20 19 13 10 6 2 5 5 4 4 3 6 9 13 15 19 21 24 26 20 16 17 15 16 15 17 23 27 33 36
2 6 4 1 4 10 2 5 11 11 2 18 27 27 28 20 8 5 3 3 1 2 2 1 4 8 11 11 16 17 18 18 16 14 14 15 15 19 21 23 28 34 33 33
9 10 6 2 2 4 4 0 5 4 5 6 18 13 9 2 5 2 7 3 3 1 4 4 8 6 6 9 13 12 10 12 14 16 19 24 26 29 30 31 30 32 32 34
2 3 6 4 3 11 10 8 6 3 5 7 4 15 11 7 6 7 8 6 5 7 7 8 7 3 7 12 13 13 20 26 29 30 32 33 32 35 36 35 33 28 25 21
10 9 6 4 1 9 8 2 2 3 11 25 21 13 9 11 11 12 12 9 8 8 9 10 7 6 12 18 15 27 34 38 37 38 39 38 35 31 29 27 28 29 25 23
5 10 6 12 9 9 6 7 16 26 33 22 14 13 11 12 15 16 14 9 8 10 13 13 12 16 17 19 25 33 40 37 39 38 35 32 30 31 30 26 24 21 18 15
5 7 5 2 2 13 22 21 17 17 17 18 16 12 10 13 17 19 17 13 13 16 19 21 22 26 33 34 34 38 41 37 32 31 29 30 26 26 24 20 19 15 14 13
8 12 7 8 14 17 9 9 14 16 26 23 17 12 10 14 21 20 20 16 18 23 31 30 33 39 41 38 36 36 34 31 31 31 30 26 22 19 17 14 13 11 9 10
15 12 8 9 15 10 19 20 31 29 35 24 19 13 9 15 21 23 25 22 24 33 39 37 37 39 39 37 36 33 30 26 25 26 25 20 16 14 12 10 10 11 14 16
Wind_Direction_500mb
186 198 201 194 191 130 139 154 155 220 174 150 228 245 264 268 271 263 264 267 272 273 273 268 265 260 258 255 248 247 240 236 237 236 235 240 240 242 245 244 246 251 252 248
144 204 178 190 184 164 160 163 179 69 85 155 17 282 258 248 252 250 259 270 282 288 282 276 268 261 258 257 252 244 245 242 237 236 239 242 243 242 249 247 244 246 247 249
169 160 195 212 186 162 159 168 167 146 130 83 323 277 277 309 340 14 60 55 46 354 313 289 274 261 250 247 246 243 242 242 244 241 239 242 243 242 243 244 243 243 245 245
124 168 178 77 111 134 139 95 127 122 103 217 358 283 311 59 55 62 64 60 52 48 48 44 39 348 256 247 240 236 234 233 241 244 239 240 243 244 245 246 247 244 246 246
92 166 167 156 170 143 153 73 106 89 95 63 4 142 268 269 58 43 32 49 45 46 49 51 54 57 57 33 269 248 238 231 227 235 244 246 246 249 252 253 251 248 247 248
73 76 95 3 153 165 138 99 59 59 83 96 278 198 290 139 130 102 32 40 37 39 43 46 49 53 55 51 49 34 249 241 237 236 241 245 246 246 248 250 251 249 250 251
50 43 9 144 90 77 102 107 54 24 32 217 350 132 251 259 272 160 155 32 38 34 31 31 28 27 29 24 21 23 30 233 233 236 239 242 247 249 253 254 255 257 257 256
136 101 50 328 108 161 115 133 153 180 180 188 32 229 206 301 201 153 33 39 39 33 27 24 19 8 354 346 332 311 296 288 268 251 249 249 249 253 256 260 262 262 261 258
120 59 349 46 111 72 154 115 148 107 23 74 212 275 354 209 188 299 19 36 31 27 23 16 6 351 337 334 330 314 293 279 274 264 255 252 251 253 257 262 265 267 267 266
146 102 47 173 69 35 112 133 103 353 120 258 254 267 179 188 189 264 348 19 17 17 10 1 356 349 333 320 320 315 308 301 279 267 262 261 262 263 262 262 263 264 264 265
127 93 24 120 37 160 137 85 55 92 87 166 231 252 192 177 176 88 331 1 11 2 2 356 349 344 334 329 330 331 331 317 296 283 275 274 272 267 266 267 266 267 266 262
23 118 119 145 224 174 96 142 137 129 221 79 90 276 261 219 197 345 329 351 355 354 358 350 344 338 345 356 351 343 330 321 340 321 297 286 279 277 279 277 271 264 258 255
178 42 104 76 87 33 184 175 122 100 85 192 141 264 141 220 265 288 317 346 350 354 355 360 3 19 19 10 359 1 359 352 322 309 316 318 311 304 293 283 272 264 256 252
97 93 147 176 165 130 172 177 163 126 132 157 229 306 290 302 311 319 324 331 345 355 359 5 15 17 17 18 23 10 7 359 357 344 327 320 316 313 305 283 265 254 244 234
82 100 89 203 119 153 186 175 178 177 183 173 247 215 270 271 282 285 315 319 344 349 355 2 4 360 27 25 14 8 1 10 13 7 9 7 349 332 301 272 258 244 222 211
14 123 90 9 90 223 260 227 200 221 221 261 259 284 263 269 286 300 263 323 335 347 354 351 348 -0 24 19 12 11 18 22 21 18 24 16 355 339 312 285 243 201 189 179
81 123 71 291 359 341 288 223 196 187 205 208 211 231 268 265 272 171 284 298 343 333 334 329 332 6 10 23 26 29 34 31 24 22 26 34 33 34 40 86 129 131 141 146
123 108 100 245 348 230 241 239 186 203 196 216 260 256 258 285 294 300 317 294 329 310 305 316 11 18 22 28 30 29 29 26 25 33 43 61 70 85 106 111 115 124 133 136
96 107 116 237 241 291 113 169 142 179 244 205 227 263 276 288 275 245 199 327 0 324 309 236 52 39 37 38 35 27 21 29 30 57 68 72 81 98 115 117 113 113 122 124
63 76 117 141 160 208 231 101 169 237 124 192 204 257 281 212 276 151 190 186 125 175 167 117 76 69 60 42 36 38 46 60 81 77 80 89 100 110 109 111 121 124 126 127
135 116 180 246 252 286 249 277 227 147 191 311 300 287 277 197 219 176 181 153 141 155 143 117 117 106 60 56 67 95 100 103 99 100 103 104 109 115 115 117 115 117 119 122
174 162 197 153 228 285 201 304 127 237 295 312 307 295 279 226 190 175 166 145 137 135 141 139 127 104 93 91 90 113 111 104 107 110 110 112 112 113 112 112 112 106 99 95
225 182 186 183 214 242 199 269 306 306 299 313 308 308 287 214 191 181 169 157 135 142 147 143 133 128 111 118 123 127 113 112 114 116 117 120 121 119 111 105 100 96 94 84
250 181 229 46 243 237 264 298 269 305 313 313 310 302 260 221 194 184 178 162 139 139 144 139 134 131 126 118 120 116 115 118 120 125 125 120 119 114 110 103 93 82 72 57
211 151 204 250 286 296 153 58 12 344 314 316 311 302 283 219 195 192 178 168 147 139 136 139 134 135 133 132 133 133 131 134 139 135 130 126 118 106 97 93 89 79 59 36
189 194 171 224 237 232 266 292 315 303 294 284 289 286 279 218 203 192 184 177 161 152 149 150 150 149 146 148 143 134 136 140 141 138 133 127 119 112 104 92 69 42 22 8
Wind_Speed_850mb
34 19 29 35 20 8 16 14 8 7 4 5 8 9 18 31 32 32 44 47 52 55 51 49 50 51 51 51 58 56 64 64 61 62 64 69 70 72 69 62 57 54 51 52
7 24 17 18 17 9 24 18 10 2 3 5 4 14 23 21 20 33 39 46 44 45 49 52 55 58 57 52 50 56 55 60 72 71 68 68 62 66 70 71 63 60 57 56
10 13 14 21 34 24 7 20 8 8 4 5 6 9 6 2 8 9 13 9 11 15 25 30 35 43 50 56 56 52 56 55 57 70 74 74 70 66 67 62 60 66 65 64
14 12 29 11 14 10 13 2 10 11 5 4 5 5 4 4 19 20 28 34 34 36 34 27 18 5 14 28 48 60 62 55 51 47 68 80 80 79 75 70 62 65 67 71
4 30 33 25 11 8 4 9 5 6 7 2 3 4 7 1 10 8 15 29 36 36 38 40 36 30 16 6 9 27 50 59 53 47 44 52 70 77 76 75 70 69 72 72
10 7 7 5 35 23 20 12 12 8 4 1 2 3 5 5 6 4 4 20 31 38 35 33 33 27 24 20 15 6 11 27 46 51 48 51 55 56 56 60 66 71 76 75
5 8 7 12 20 7 7 7 4 4 2 5 2 4 9 4 4 9 4 18 30 34 36 34 29 26 22 18 13 9 5 4 17 30 42 47 50 56 56 55 55 58 62 67
6 8 4 4 5 12 5 6 7 8 7 4 2 9 3 6 12 19 5 14 26 33 36 33 29 24 22 20 18 16 14 10 10 13 17 24 34 44 49 50 51 55 58 58
9 8 5 10 5 3 4 4 5 11 4 2 5 8 6 5 3 2 7 15 25 31 33 31 26 22 20 24 25 26 26 29 28 26 26 25 26 28 30 33 39 44 47 52
3 12 6 3 7 20 3 13 4 4 5 5 4 6 8 10 9 2 7 18 22 28 34 34 31 27 18 23 25 26 27 30 37 41 39 35 32 31 31 31 34 39 45 52
9 7 2 3 2 11 3 3 8 7 3 6 2 5 10 17 13 4 10 21 21 31 37 37 36 27 24 25 23 20 25 23 24 28 34 35 34 34 36 40 44 47 51 55
2 9 7 5 2 3 3 7 7 7 7 3 2 7 2 10 9 5 21 26 19 28 35 37 34 26 20 21 21 24 23 19 16 12 13 18 24 30 36 42 47 51 52 53
7 5 8 2 1 4 5 7 7 9 5 8 6 6 2 5 10 31 19 29 22 24 32 32 26 22 19 19 21 21 22 24 23 26 24 22 22 28 36 36 35 37 33 30
13 6 8 9 5 7 5 7 7 9 5 8 9 10 7 7 12 29 40 14 18 24 28 25 22 19 17 15 19 20 24 26 23 21 22 27 31 34 34 19 15 16 20 25
7 7 3 2 4 6 7 8 15 10 9 10 4 10 13 13 15 23 31 14 18 20 21 16 17 15 14 14 17 25 25 24 26 23 21 24 25 20 14 15 13 16 22 27
6 3 4 6 2 7 6 9 15 16 5 13 3 26 26 39 28 16 3 12 11 15 15 12 9 10 13 18 21 21 22 28 31 25 22 18 14 10 7 7 8 9 15 23
6 8 4 4 5 3 7 19 22 9 9 17 14 18 12 10 7 2 5 4 6 11 10 8 5 8 12 15 17 20 24 29 30 25 18 17 16 17 12 4 7 11 19 28
8 8 4 1 5 4 7 2 14 24 8 22 13 18 20 19 13 10 6 2 5 5 4 4 3 6 9 13 15 19 21 24 26 20 16 17 15 16 15 17 23 27 33 36
2 6 4 1 4 10 2 5 11 11 2 18 27 27 28 20 8 5 3 3 1 2 2 1 4 8 11 11 16 17 18 18 16 14 14 15 15 19 21 23 28 34 33 33
9 10 6 2 2 4 4 0 5 4 5 6 18 13 9 2 5 2 7 3 3 1 4 4 8 6 6 9 13 12 10 12 14 16 19 24 26 29 30 31 30 32 32 34
2 3 6 4 3 11 10 8 6 3 5 7 4 15 11 7 6 7 8 6 5 7 7 8 7 3 7 12 13 13 20 26 29 30 32 33 32 35 36 35 33 28 25 21
10 9 6 4 1 9 8 2 2 3 11 25 21 13 9 11 11 12 12 9 8 8 9 10 7 6 12 18 15 27 34 38 37 38 39 38 35 31 29 27 28 29 25 23
5 10 6 12 9 9 6 7 16 26 33 22 14 13 11 12 15 16 14 9 8 10 13 13 12 16 17 19 25 33 40 37 39 38 35 32 30 31 30 26 24 21 18 15
5 7 5 2 2 13 22 21 17 17 17 18 16 12 10 13 17 19 17 13 13 16 19 21 22 26 33 34 34 38 41 37 32 31 29 30 26 26 24 20 19 15 14 13
8 12 7 8 14 17 9 9 14 16 26 23 17 12 10 14 21 20 20 16 18 23 31 30 33 39 41 38 36 36 34 31 31 31 30 26 22 19 17 14 13 11 9 10
15 12 8 9 15 10 19 20 31 29 35 24 19 13 9 15 21 23 25 22 24 33 39 37 37 39 39 37 36 33 30 26 25 26 25 20 16 14 12 10 10 11 14 16
Wind_Direction_850mb
186 198 201 194 191 130 139 154 155 220 174 150 228 245 264 268 271 263 264 267 272 273 273 268 265 260 258 255 248 247 240 236 237 236 235 240 240 242 245 244 246 251 252 248
144 204 178 190 184 164 160 163 179 69 85 155 17 282 258 248 252 250 259 270 282 288 282 276 268 261 258 257 252 244 245 242 237 236 239 242 243 242 249 247 244 246 247 249
169 160 195 212 186 162 159 168 167 146 130 83 323 277 277 309 340 14 60 55 46 354 313 289 274 261 250 247 246 243 242 242 244 241 239 242 243 242 243 244 243 243 245 245
124 168 178 77 111 134 139 95 127 122 103 217 358 283 311 59 55 62 64 60 52 48 48 44 39 348 256 247 240 236 234 233 241 244 239 240 243 244 245 246 247 244 246 246
92 166 167 156 170 143 153 73 106 89 95 63 4 142 268 269 58 43 32 49 45 46 49 51 54 57 57 33 269 248 238 231 227 235 244 246 246 249 252 253 251 248 247 248
73 76 95 3 153 165 138 99 59 59 83 96 278 198 290 139 130 102 32 40 37 39 43 46 49 53 55 51 49 34 249 241 237 236 241 245 246 246 248 250 251 249 250 251
50 43 9 144 90 77 102 107 54 24 32 217 350 132 251 259 272 160 155 32 38 34 31 31 28 27 29 24 21 23 30 233 233 236 239 242 247 249 253 254 255 257 257 256
136 101 50 328 108 161 115 133 153 180 180 188 32 229 206 301 201 153 33 39 39 33 27 24 19 8 354 346 332 311 296 288 268 251 249 249 249 253 256 260 262 262 261 258
120 59 349 46 111 72 154 115 148 107 23 74 212 275 354 209 188 299 19 36 31 27 23 16 6 351 337 334 330 314 293 279 274 264 255 252 251 253 257 262 265 267 267 266
146 102 47 173 69 35 112 133 103 353 120 258 254 267 179 188 189 264 348 19 17 17 10 1 356 349 333 320 320 315 308 301 279 267 262 261 262 263 262 262 263 264 264 265
127 93 24 120 37 160 137 85 55 92 87 166 231 252 192 177 176 88 331 1 11 2 2 356 349 344 334 329 330 331 331 317 296 283 275 274 272 267 266 267 266 267 266 262
23 118 119 145 224 174 96 142 137 129 221 79 90 276 261 219 197 345 329 351 355 354 358 350 344 338 345 356 351 343 330 321 340 321 297 286 279 277 279 277 271 264 258 255
178 42 104 76 87 33 184 175 122 100 85 192 141 264 141 220 265 288 317 346 350 354 355 360 3 19 19 10 359 1 359 352 322 309 316 318 311 304 293 283 272 264 256 252
97 93 147 176 165 130 172 177 163 126 132 157 229 306 290 302 311 319 324 331 345 355 359 5 15 17 17 18 23 10 7 359 357 344 327 320 316 313 305 283 265 254 244 234
82 100 89 203 119 153 186 175 178 177 183 173 247 215 270 271 282 285 315 319 344 349 355 2 4 360 27 25 14 8 1 10 13 7 9 7 349 332 301 272 258 244 222 211
14 123 90 9 90 223 260 227 200 221 221 261 259 284 263 269 286 300 263 323 335 347 354 351 348 -0 24 19 12 11 18 22 21 18 24 16 355 339 312 285 243 201 189 179
81 123 71 291 359 341 288 223 196 187 205 208 211 231 268 265 272 171 284 298 343 333 334 329 332 6 10 23 26 29 34 31 24 22 26 34 33 34 40 86 129 131 141 146
123 108 100 245 348 230 241 239 186 203 196 216 260 256 258 285 294 300 317 294 329 310 305 316 11 18 22 28 30 29 29 26 25 33 43 61 70 85 106 111 115 124 133 136
96 107 116 237 241 291 113 169 142 179 244 205 227 263 276 288 275 245 199 327 0 324 309 236 52 39 37 38 35 27 21 29 30 57 68 72 81 98 115 117 113 113 122 124
63 76 117 141 160 208 231 101 169 237 124 192 204 257 281 212 276 151 190 186 125 175 167 117 76 69 60 42 36 38 46 60 81 77 80 89 100 110 109 111 121 124 126 127
135 116 180 246 252 286 249 277 227 147 191 311 300 287 277 197 219 176 181 153 141 155 143 117 117 106 60 56 67 95 100 103 99 100 103 104 109 115 115 117 115 117 119 122
174 162 197 153 228 285 201 304 127 237 295 312 307 295 279 226 190 175 166 145 137 135 141 139 127 104 93 91 90 113 111 104 107 110 110 112 112 113 112 112 112 106 99 95
225 182 186 183 214 242 199 269 306 306 299 313 308 308 287 214 191 181 169 157 135 142 147 143 133 128 111 118 123 127 113 112 114 116 117 120 121 119 111 105 100 96 94 84
250 181 229 46 243 237 264 298 269 305 313 313 310 302 260 221 194 184 178 162 139 139 144 139 134 131 126 118 120 116 115 118 120 125 125 120 119 114 110 103 93 82 72 57
211 151 204 250 286 296 153 58 12 344 314 316 311 302 283 219 195 192 178 168 147 139 136 139 134 135 133 132 133 133 131 134 139 135 130 126 118 106 97 93 89 79 59 36
189 194 171 224 237 232 266 292 315 303 294 284 289 286 279 218 203 192 184 177 161 152 149 150 150 149 146 148 143 134 136 140 141 138 133 127 119 112 104 92 69 42 22 8